• In Schweiz
  • Länderverzeichnis
  • Für 7 Tage
  • Wassertemperatur
  • Satellitenkarten
  • Wetterkarte
  • Widgets
  • user-avatar
    Anmelden

    Stündliche Wetter Boma

    Heute, 17 Oktober, Dienstag

    Zeit Temperatur Niederschläge Wind Luftdruck Luftfeuchtigkeit
    00:00 +21°C° 0,5 mm 0 m/S 701 mmHg 96%
    01:00 +21°C° 0 mm 0 m/S 701 mmHg 97%
    02:00 +21°C° 1 mm 0 m/S 701 mmHg 97%
    03:00 +20°C° 1 mm 0 m/S 701 mmHg 98%
    04:00 +20°C° 1 mm 0 m/S 701 mmHg 98%
    05:00 +21°C° 0,2 mm 0 m/S 701 mmHg 98%
    06:00 +21°C° 0,2 mm 0 m/S 701 mmHg 97%
    07:00 +23°C° 0 mm 1 m/S 702 mmHg 97%
    08:00 +24°C° 1,1 mm 1 m/S 702 mmHg 95%
    09:00 +25°C° 1,1 mm 1 m/S 702 mmHg 93%
    10:00 +26°C° 1,1 mm 1 m/S 702 mmHg 91%
    11:00 +27°C° 1,4 mm 1 m/S 702 mmHg 90%
    12:00 +27°C° 1,4 mm 1 m/S 701 mmHg 88%
    13:00 +27°C° 0 mm 1 m/S 701 mmHg 85%
    14:00 +27°C° 0,7 mm 1 m/S 701 mmHg 86%
    15:00 +27°C° 0,7 mm 1 m/S 700 mmHg 86%
    16:00 +25°C° 0,7 mm 0 m/S 700 mmHg 87%
    17:00 +24°C° 0,1 mm 0 m/S 700 mmHg 90%
    18:00 +25°C° 0,1 mm 1 m/S 701 mmHg 92%
    19:00 +23°C° 0,1 mm 1 m/S 701 mmHg 95%
    20:00 +23°C° 0 mm 1 m/S 701 mmHg 95%
    21:00 +23°C° 0 mm 1 m/S 701 mmHg 95%
    22:00 +21°C° 0 mm 0 m/S 701 mmHg 95%
    23:00 +20°C° 0 mm 0 m/S 701 mmHg 96%

    Morgen, 18 Oktober, Mittwoch

    Zeit Temperatur Niederschläge Wind Luftdruck Luftfeuchtigkeit
    00:00 +20°C° 0 mm 0 m/S 701 mmHg 96%
    01:00 +20°C° 0 mm 0 m/S 701 mmHg 96%
    02:00 +19°C° 0 mm 0 m/S 701 mmHg 97%
    03:00 +19°C° 0 mm 0 m/S 700 mmHg 97%
    04:00 +19°C° 0 mm 0 m/S 700 mmHg 97%
    05:00 +19°C° 0 mm 0 m/S 700 mmHg 96%
    06:00 +20°C° 0 mm 0 m/S 701 mmHg 96%
    07:00 +20°C° 0 mm 0 m/S 701 mmHg 95%
    08:00 +23°C° 0 mm 0 m/S 702 mmHg 83%
    09:00 +26°C° 0 mm 0 m/S 702 mmHg 71%
    10:00 +29°C° 0 mm 0 m/S 703 mmHg 58%
    11:00 +29°C° 1 mm 0 m/S 702 mmHg 64%
    12:00 +29°C° 1 mm 0 m/S 701 mmHg 69%
    13:00 +31°C° 1 mm 1 m/S 700 mmHg 74%
    14:00 +31°C° 0,4 mm 1 m/S 700 mmHg 69%
    15:00 +31°C° 0,4 mm 1 m/S 699 mmHg 64%
    16:00 +31°C° 0,4 mm 1 m/S 699 mmHg 58%
    17:00 +29°C° 0 mm 1 m/S 699 mmHg 66%
    18:00 +25°C° 0 mm 0 m/S 699 mmHg 73%
    19:00 +23°C° 0 mm 0 m/S 700 mmHg 80%
    20:00 +22°C° 0 mm 0 m/S 700 mmHg 81%
    21:00 +22°C° 0 mm 0 m/S 701 mmHg 82%
    22:00 +22°C° 0 mm 0 m/S 701 mmHg 83%
    23:00 +21°C° 0,2 mm 0 m/S 701 mmHg 85%

    übermorgen, 19 Oktober, Donnerstag

    Zeit Temperatur Niederschläge Wind Luftdruck Luftfeuchtigkeit
    00:00 +21°C° 0,2 mm 0 m/S 701 mmHg 87%
    01:00 +21°C° 0,2 mm 0 m/S 701 mmHg 89%
    02:00 +20°C° 0,4 mm 0 m/S 700 mmHg 92%
    03:00 +20°C° 0,4 mm 0 m/S 700 mmHg 94%
    04:00 +21°C° 0,4 mm 1 m/S 700 mmHg 96%
    05:00 +22°C° 0 mm 1 m/S 700 mmHg 96%
    06:00 +20°C° 0 mm 0 m/S 701 mmHg 95%
    07:00 +21°C° 0 mm 0 m/S 701 mmHg 94%
    08:00 +24°C° 0,1 mm 1 m/S 702 mmHg 89%
    09:00 +25°C° 0,1 mm 1 m/S 702 mmHg 85%
    10:00 +26°C° 0,1 mm 1 m/S 703 mmHg 80%
    11:00 +27°C° 0,7 mm 1 m/S 702 mmHg 78%
    12:00 +28°C° 0,7 mm 1 m/S 701 mmHg 77%
    13:00 +29°C° 0,7 mm 1 m/S 700 mmHg 75%
    14:00 +27°C° 1,1 mm 0 m/S 700 mmHg 77%
    15:00 +26°C° 1,1 mm 0 m/S 699 mmHg 79%
    16:00 +26°C° 1,1 mm 0 m/S 699 mmHg 82%
    17:00 +24°C° 0,2 mm 0 m/S 699 mmHg 86%
    18:00 +23°C° 0,2 mm 0 m/S 700 mmHg 90%
    19:00 +21°C° 0,2 mm 0 m/S 700 mmHg 94%
    20:00 +21°C° 0 mm 0 m/S 701 mmHg 94%
    21:00 +21°C° 0 mm 0 m/S 701 mmHg 95%
    22:00 +20°C° 0 mm 0 m/S 702 mmHg 96%
    23:00 +20°C° 0 mm 0 m/S 701 mmHg 96%

    20 Oktober, Freitag

    Zeit Temperatur Niederschläge Wind Luftdruck Luftfeuchtigkeit
    00:00 +20°C° 0 mm 0 m/S 701 mmHg 97%
    01:00 +20°C° 0 mm 0 m/S 700 mmHg 98%
    02:00 +19°C° 0 mm 0 m/S 700 mmHg 98%
    03:00 +19°C° 0 mm 0 m/S 700 mmHg 98%
    04:00 +19°C° 0 mm 0 m/S 700 mmHg 98%
    05:00 +19°C° 0 mm 0 m/S 700 mmHg 98%
    06:00 +20°C° 0 mm 0 m/S 701 mmHg 97%
    07:00 +20°C° 0 mm 0 m/S 701 mmHg 96%
    08:00 +22°C° 0 mm 0 m/S 702 mmHg 88%
    09:00 +24°C° 0 mm 0 m/S 703 mmHg 81%
    10:00 +26°C° 0 mm 0 m/S 703 mmHg 73%
    11:00 +28°C° 0,5 mm 1 m/S 702 mmHg 74%
    12:00 +29°C° 0,5 mm 1 m/S 701 mmHg 74%
    13:00 +29°C° 0,5 mm 1 m/S 700 mmHg 74%
    14:00 +29°C° 0,4 mm 1 m/S 700 mmHg 73%
    15:00 +29°C° 0,4 mm 1 m/S 700 mmHg 71%
    16:00 +27°C° 0,4 mm 0 m/S 699 mmHg 70%
    17:00 +25°C° 0,2 mm 0 m/S 699 mmHg 76%
    18:00 +24°C° 0,2 mm 0 m/S 700 mmHg 83%
    19:00 +22°C° 0,2 mm 0 m/S 700 mmHg 90%
    20:00 +21°C° 0 mm 0 m/S 700 mmHg 91%
    21:00 +21°C° 0 mm 0 m/S 701 mmHg 91%
    22:00 +21°C° 0 mm 0 m/S 701 mmHg 92%
    23:00 +20°C° 0 mm 0 m/S 701 mmHg 93%

    21 Oktober, Samstag

    Zeit Temperatur Niederschläge Wind Luftdruck Luftfeuchtigkeit
    00:00 +20°C° 0 mm 0 m/S 701 mmHg 94%
    01:00 +20°C° 0 mm 0 m/S 700 mmHg 95%
    02:00 +20°C° 0 mm 0 m/S 700 mmHg 96%
    03:00 +19°C° 0 mm 0 m/S 700 mmHg 97%
    04:00 +19°C° 0 mm 0 m/S 700 mmHg 98%
    05:00 +20°C° 0 mm 0 m/S 700 mmHg 96%
    06:00 +20°C° 0 mm 0 m/S 701 mmHg 95%
    07:00 +20°C° 0 mm 0 m/S 701 mmHg 94%
    08:00 +23°C° 0 mm 0 m/S 702 mmHg 83%
    09:00 +26°C° 0 mm 0 m/S 702 mmHg 73%
    10:00 +28°C° 0 mm 0 m/S 703 mmHg 63%
    11:00 +31°C° 0,1 mm 1 m/S 702 mmHg 58%
    12:00 +33°C° 0,1 mm 1 m/S 701 mmHg 53%
    13:00 +34°C° 0,1 mm 1 m/S 700 mmHg 48%
    14:00 +33°C° 0,3 mm 1 m/S 700 mmHg 51%
    15:00 +32°C° 0,3 mm 1 m/S 699 mmHg 55%
    16:00 +31°C° 0,3 mm 1 m/S 699 mmHg 58%
    17:00 +29°C° 0 mm 1 m/S 699 mmHg 67%
    18:00 +27°C° 0 mm 1 m/S 699 mmHg 76%
    19:00 +25°C° 0 mm 1 m/S 700 mmHg 85%
    20:00 +24°C° 0,1 mm 1 m/S 700 mmHg 87%
    21:00 +22°C° 0,1 mm 0 m/S 700 mmHg 89%
    22:00 +21°C° 0,1 mm 0 m/S 701 mmHg 92%
    23:00 +21°C° 0,3 mm 0 m/S 701 mmHg 94%

    22 Oktober, Sonntag

    Zeit Temperatur Niederschläge Wind Luftdruck Luftfeuchtigkeit
    00:00 +20°C° 0,3 mm 0 m/S 700 mmHg 95%
    01:00 +22°C° 0,3 mm 1 m/S 700 mmHg 97%
    02:00 +20°C° 0,5 mm 0 m/S 700 mmHg 98%
    03:00 +20°C° 0,5 mm 0 m/S 700 mmHg 98%
    04:00 +20°C° 0,5 mm 0 m/S 700 mmHg 99%
    05:00 +20°C° 0 mm 0 m/S 701 mmHg 98%
    06:00 +20°C° 0 mm 0 m/S 701 mmHg 98%
    07:00 +23°C° 0 mm 1 m/S 702 mmHg 98%
    08:00 +24°C° 0 mm 1 m/S 702 mmHg 90%
    09:00 +26°C° 0 mm 1 m/S 702 mmHg 82%
    10:00 +28°C° 0 mm 1 m/S 702 mmHg 75%
    11:00 +30°C° 0,3 mm 1 m/S 702 mmHg 69%
    12:00 +29°C° 0,3 mm 0 m/S 701 mmHg 63%
    13:00 +31°C° 0,3 mm 0 m/S 700 mmHg 57%
    14:00 +30°C° 0,9 mm 0 m/S 700 mmHg 62%
    15:00 +29°C° 0,9 mm 0 m/S 700 mmHg 67%
    16:00 +30°C° 0,9 mm 1 m/S 699 mmHg 71%
    17:00 +28°C° 0,2 mm 1 m/S 699 mmHg 78%
    18:00 +26°C° 0,2 mm 1 m/S 700 mmHg 85%
    19:00 +24°C° 0,2 mm 1 m/S 700 mmHg 91%
    20:00 +22°C° 0 mm 0 m/S 700 mmHg 92%
    21:00 +21°C° 0 mm 0 m/S 700 mmHg 93%
    22:00 +21°C° 0 mm 0 m/S 701 mmHg 94%
    23:00 +21°C° 0 mm 0 m/S 700 mmHg 94%
    Mehr zeigen